www.pogodaiklimat.ru
ПОГОДА в Лаоаке

Архив погоды в Лаоаке (Филиппины)

Время
(UTC), дата
09 6.08
12 6.08
15 6.08
18 6.08
21 6.08
00 7.08
03 7.08
06 7.08
00 8.08
03 8.08
06 8.08
09 8.08
12 8.08
15 8.08
18 8.08
21 8.08
00 9.08
03 9.08
06 9.08
09 9.08
12 9.08
15 9.08
18 9.08
21 9.08
00 10.08
03 10.08
06 10.08
09 10.08
12 10.08
15 10.08
18 10.08
21 10.08
00 11.08
03 11.08
06 11.08
09 11.08
12 11.08
15 11.08
18 11.08
21 11.08
00 12.08
03 12.08
06 12.08
12 12.08
15 12.08
18 12.08
00 13.08
03 13.08
06 13.08
Ветер
(напр.,м/с)
Видим. Явления Облачность Т
(С)
Тd
(С)
f
(%)
Тe
(С)
Тes
(С)
Комфортность P
(гПа)
Po
(гПа)
Тmin
(С)
Tmax
(С)
R
(мм)
R24
(мм)
S
(см)
ЮЗ 4 8000 м гроза, ливневой дождь 10/6 500 м
[Cb cap Ac cuf Cs]
+31.7 +26.6 74 +48 +49 опасность
перегрева
1003.6 1003.0 0.0
Ю 2 10 км зарница {гроза, ливн. дождь} 6/5 500 м
[Cb cap Ac cuf Cs]
+29.2 +26.4 85 +45 +45 опасность
перегрева
1005.6 1005.0 +32.4
Ю 3 10 км зарница 9/3 500 м
[Cb cap Cs]
+28.1 +25.3 85 +41 +41 опасность
перегрева
1006.9 1006.3
Ю 2 10 км зарница 9/6 500 м
[Cb cap Ac As]
+27.2 +25.6 91 +40 +40 очень
душно
1005.8 1005.2
В 1 10 км гроза без осадков 9/5 500 м
[Cb cap Ac As]
+27.0 +25.7 93 +40 +40 очень
душно
1006.0 1005.4
СВ 2 8000 м мгла {гроза} 10/4 500 м
[Cb cap Ac As]
+27.7 +25.7 89 +41 +42 опасность
перегрева
1007.3 1006.7 +26.7 0.0 0.0
С 3 10 км мгла 9/3 500 м
[Cb cap Ac As Cs]
+30.8 +25.3 73 +45 +52 опасность
перегрева
1007.8 1007.2
С 5 10 км гроза без осадков 10/3 500 м
[Cb cap Ac As Cs]
+30.2 +25.6 76 +44 +47 опасность
перегрева
1005.8 1005.2
Ю 2 8000 м слаб. ливневой дождь 10/4 540 м
[Cu Sc As op]
+26.2 +24.7 91 +37 +38 очень
душно
1007.5 1006.9 +25.1 0.0 0.0
СЗ 2 10 км мгла {ливн. дождь} 9/4 500 м
[Cb cap Ac As]
+30.2 +25.5 76 +44 +50 опасность
перегрева
1007.0 1006.4 0.0
З 5 8000 м гроза, ливневой дождь 10/6 500 м
[Cb cap Ac As]
+29.9 +26.2 81 +46 +47 опасность
перегрева
1005.6 1005.0 0.0
С 1 5000 м гроза, ливневой дождь 10/5 300 м
[Cb cap As op]
+24.4 +24.0 98 +34 +34 очень
душно
1006.8 1006.2 48
В 1 8000 м слаб. дождь {гроза} 10/10 540 м +24.6 +24.4 99 +34 +34 очень
душно
1007.5 1006.9 +30.2 49
В 1 8000 м в посл. час дождь 10/5 300 м
[Cu Sc Ac As Ci fib]
+24.6 +24.1 97 +34 +34 очень
душно
1007.2 1006.6 0.2
Ю 2 8000 м слаб. дождь {ливн. дождь} 10/3 540 м
[Cu Sc Ac As]
+24.8 +24.0 95 +34 +34 очень
душно
1006.1 1005.5 0.6
В 3 7000 м слаб. дождь 10/3 300 м
[Cu Sc As op]
+24.6 +24.1 97 +34 +34 очень
душно
1005.3 1004.7 0.2
Ю 2 8000 м слаб. дождь 9/3 540 м
[Cu Sc Ac As Cs]
+25.6 +25.0 96 +36 +39 очень
душно
1006.8 1006.2 +24.1 50 50.0
СВ 2 10 км мгла {дождь} 9/4 540 м
[Cu med, cong Ac cuf Cs]
+29.4 +24.8 76 +42 +49 опасность
перегрева
1007.5 1006.9 0.2
З 2 8000 м слаб. ливневой дождь 10/3 540 м
[Cu Sc Ac As Cs]
+29.8 +25.6 78 +44 +50 опасность
перегрева
1006.3 1005.7 0.2
Ю 1 5000 м слаб. дождь {гроза, ливн. дождь} 10/4 500 м
[Cb cap As op]
+28.9 +24.8 79 +41 +42 опасность
перегрева
1006.1 1005.5 0.0
В 1 8000 м в посл. час ливневой дождь {гроза} 10/4 500 м
[Cb cap Ac As]
+26.8 +24.7 88 +38 +38 очень
душно
1007.9 1007.3 +29.8 0.0
В 1 5000 м слаб. дождь {ливн. дождь} 10/4 300 м
[Cu Sc As op]
+26.2 +25.4 95 +38 +38 очень
душно
1008.9 1008.3 0.0
В 1 8000 м зарница {дождь} 10/3 500 м
[Cb cap Ac As Cs]
+25.4 +25.0 98 +36 +36 очень
душно
1007.3 1006.7 0.0
В 1 10 км 10/3 300 м
[Cu Sc Ac As Cs]
+25.2 +24.8 98 +36 +36 очень
душно
1006.6 1006.0
В 1 10 км мгла 10/3 540 м
[Cu Sc Ac As Cs]
+26.9 +24.9 89 +39 +41 очень
душно
1007.5 1006.9 +24.2 0.2 0.2
В 1 10 км мгла 10/3 540 м
[Cu Sc Ac As Cs]
+30.4 +24.9 72 +43 +52 опасность
перегрева
1008.4 1007.8
З 5 10 км мгла 9/3 500 м
[Cb cap Ac As Cs]
+31.2 +24.9 69 +44 +48 опасность
перегрева
1007.4 1006.8
Ю 1 7000 м гроза, ливневой дождь 10/3 500 м
[Cb cap As op Cs]
+29.2 +25.3 80 +43 +44 опасность
перегрева
1007.9 1007.3 0.0
ЮВ 1 8000 м в посл. час дождь {гроза, ливн. дождь} 10/3 540 м
[Cu Sc Ac As Cs]
+25.9 +24.7 93 +37 +37 очень
душно
1009.2 1008.6 +31.2 6
В 1 8000 м 10/3 540 м
[Cu Sc Ac As Cs]
+25.1 +24.9 99 +36 +36 очень
душно
1010.3 1009.7
В 1 10 км 9/3 540 м
[Cu Sc Cs]
+24.6 +24.1 97 +34 +34 очень
душно
1008.9 1008.3
ЮВ 1 10 км 5/3 540 м
[Cu Sc Cs]
+24.0 +22.8 93 +32 +32 очень
душно
1007.7 1007.1
В 2 8000 м мгла 9/9 540 м +26.0 +24.4 91 +36 +40 очень
душно
1009.3 1008.7 +24.0 6 6.3
З 2 10 км мгла 9/3 300 м
[Cu med, cong Ac cuf Cs]
+30.6 +23.0 64 +41 +49 опасность
перегрева
1009.8 1009.2
З 4 10 км мгла 9/3 300 м
[Cb calv Cs]
+31.4 +25.1 69 +45 +52 опасность
перегрева
1008.6 1008.0
З 2 7000 м гроза, ливневой дождь 9/5 500 м
[Cb cap Ac As Cs]
+30.0 +25.3 76 +44 +44 опасность
перегрева
1009.2 1008.6 0.0
В 2 4000 м гроза, ливневой дождь 10/6 500 м
[Cb cap As op]
+25.0 +24.5 97 +35 +35 очень
душно
1011.5 1010.9 +31.4 20
В 3 8000 м в посл. час дождь {гроза} 10/4 540 м
[Cu Sc Ac cuf]
+24.6 +23.9 96 +34 +34 очень
душно
1011.7 1011.1 3
Ю 3 10 км {гроза, дождь} 9/1 500 м
[Cb cap Ac As Cs]
+24.3 +23.5 95 +33 +33 очень
душно
1009.1 1008.5 3
ЮВ 2 10 км 9/1 300 м
[Cu Sc Ac As Cs]
+24.1 +23.6 97 +33 +33 очень
душно
1009.5 1008.9
ЮВ 3 8000 м осадки на расстоянии 9/5 500 м
[Cb cap Ac cuf Cs]
+26.7 +24.4 87 +37 +39 очень
душно
1010.4 1009.8 +24.1 23 23.4
СЗ 3 8000 м слаб. ливневой дождь 9/5 540 м
[Cu med, cong Ac As]
+29.4 +25.8 81 +44 +48 опасность
перегрева
1010.4 1009.8 0.0
З 4 10 км мгла {ливн. дождь} 9/4 500 м
[Cb cap Ac As Ci ing]
+30.6 +24.0 68 +42 +46 опасность
перегрева
1009.1 1008.5 0.2
В 2 8000 м в посл. час ливневой дождь {гроза} 9/4 540 м
[Cu med, cong Ac As]
+27.0 +25.4 91 +39 +39 очень
душно
1010.1 1009.5 +31.8 0.0
В 2 10 км 8/1 540 м
[Cu med, cong Ac cuf Cs]
+25.7 +24.6 94 +36 +36 очень
душно
1010.7 1010.1
В 1 10 км 5/1 540 м
[Cu Sc Cs]
+24.9 +24.1 95 +34 +34 очень
душно
1009.4 1008.8
В 2 10 км мгла 9/1 500 м
[Cb cap Cs]
+27.5 +25.0 86 +39 +44 очень
душно
1008.7 1008.1 +24.5 0.2 0.2
СЗ 3 10 км мгла 6/4 540 м
[Cu med, cong Ci fib]
+30.9 +26.3 77 +47 +57 опасность
перегрева
1008.9 1008.3
СЗ 5 8000 м осадки на расстоянии {гроза} 9/5 500 м
[Cb cap Ac cuf Cs]
+31.1 +25.9 74 +46 +49 опасность
перегрева
1007.6 1007.0
Местоположение метеостанции Лаоак (Филиппины): широта 18.18 долгота 120.53 высота над уровнем моря 5 м.
В архиве по умолчанию представлена погода в Лаоаке за последнюю неделю. Архивные данные за месяц целиком и за предыдущие месяцы, начиная с января 2011 года, Вы можете получить, выбрав интересующий диапазон дат из раскрывающегося списка и нажав кнопку "Найти!".
*Определитесь, кто Вы:
Внимание! Время в таблицах - всемирное. Для получения местного времени необходимо прибавить поправку, которая равна 8 ч.
Смотрите также архив погоды в соседних городах и на ближайших метеорологических станциях:
Партнеры нашего сайта:      
Пояснения к столбцам:
  • Ветер - указаны скорость ветра в м/с - средняя за 10 мин, порывы в срок и между сроками (в фигурных скобках) и направление, откуда дует ветер: С - северный,
  • СВ - северо-восточный, В - восточный, ЮВ - юго-восточный, Ю - южный, ЮЗ - юго-западный, З - западный, СЗ - северо-западный.
  • Видимость - горизонтальная дальность видимости в метрах или километрах. При видимости от 1 до 10 км при отсутствии осадков обычно наблюдается дымка, при ухудшении видимости до 1 км и менее - туман. В сухую погоду видимость может ухудшаться дымом, пылью или мглою.
  • Явления - указаны атмосферные явления, наблюдавшиеся в срок или в последний час перед сроком; фигурными скобками обозначены явления, наблюдавшиеся между сроками (за 1-3 часа до срока); квадратными скобками обозначены град или гололедные отложения с указанием их диаметра в мм.
  • Облачность - указаны через наклонную черту общая и нижняя облачность в баллах и высота нижней границы облаков в метрах; квадратными скобками обозначены формы облаков: Ci - перистые, Cs - перисто-слоистые, Cc - перисто-кучевые, Ac - высококучевые, As - высокослоистые, Sc - слоисто-кучевые, Ns - слоисто-дождевые, Cu - кучевые, Cb - кучево-дождевые. Подробнее классификацию облаков см. в Атласе облаков (PDF).
  • T - Температура воздуха - температура, измеренная на высоте 2 м над землей.
  • Td - Температура точки росы - температура, при понижении до которой содержащийся в воздухе водяной пар достигнет насыщения.
  • f - Относительная влажность воздуха - влажноcть воздуха, измеренная на высоте 2 м над землей.
  • Te - Эффективная температура - температура, которую ощущает одетый по сезону человек в тени. Характеристика душности погоды. При расчете учитывается влияние влажности воздуха и скорости ветра на теплоощущения человека.
  • Tes - Эффективная температура на солнце - температура, которую ощущает человек, с поправкой на солнечный нагрев. Характеристика знойности погоды. Зависит от высоты солнца над горизонтом, облачности и скорости ветра. Ночью, в пасмурную погоду, а также при ветре 12 м/с и более поправка равна нулю.
  • P - Атмосферное давление - приведенное к уровню моря атмосферное давление.
  • Po - Атмосферное давление - измеренное на уровне метеостанции атмосферное давление.
  • Tmin - Минимальная температура - минимум температуры воздуха на высоте 2 м над землей.
  • Tmax - Максимальная температура - максимум температуры воздуха на высоте 2 м над землей.
  • R - Количество осадков - Количество выпавших осадков за период времени, мм. При наведении курсора мыши на число - период времени, за который выпало указанное количество осадков.
  • R24 - Количество осадков - Количество выпавших осадков за 24 часа, мм.
  • S - Снежный покров - Высота снежного покрова, см. При наведении курсора мыши на число - состояние снежного покрова и степень покрытия местности в баллах.